| time (UTC) | temp F | wind direction | speed MPH | gust MPH | rain 1hr in | rain 24hr in | rain mn in | humidity % | barometer mb |
| 20260903213252 | 67 | 293 | 0.0 | 0.0 | 0.00 | 0.13 | 0.13 | 54 | 1014.2 |
| 20260903212748 | 66 | 172 | 0.0 | 0.0 | 0.00 | 0.13 | 0.13 | 58 | 1014.3 |
| 20260903212244 | 65 | 216 | 0.0 | 5.0 | 0.00 | 0.13 | 0.13 | 57 | 1014.4 |
| 20260903211743 | 64 | 135 | 0.0 | 5.0 | 0.00 | 0.13 | 0.13 | 60 | 1014.3 |
| 20260903211240 | 64 | 236 | 0.0 | 10.0 | 0.00 | 0.13 | 0.13 | 63 | 1014.2 |
| 20260903210735 | 63 | 216 | 0.0 | 0.0 | 0.00 | 0.13 | 0.13 | 66 | 1014.3 |
| 20260903210230 | 62 | 223 | 0.0 | 0.0 | 0.00 | 0.13 | 0.13 | 71 | 1014.1 |
| 20260903205725 | 62 | 202 | 0.0 | 0.0 | 0.00 | 0.13 | 0.13 | 72 | 1014.3 |
| 20260903205224 | 62 | 130 | 0.0 | 0.0 | 0.00 | 0.13 | 0.13 | 70 | 1014.2 |
| 20260903204719 | 62 | 281 | 0.0 | 5.0 | 0.00 | 0.13 | 0.13 | 71 | 1014.3 |
| 20260903204216 | 62 | 293 | 0.0 | 0.0 | 0.28 | 0.13 | 0.13 | 73 | 1014.3 |
| 20260903203711 | 64 | 222 | 0.0 | 0.0 | 0.28 | 0.13 | 0.13 | 67 | 1014.3 |
| 20260903203206 | 67 | 220 | 0.0 | 0.0 | 0.00 | 0.08 | 0.08 | 57 | 1014.4 |
| 20260903202700 | 67 | 250 | 0.0 | 5.0 | 0.00 | 0.08 | 0.08 | 55 | 1014.2 |
| 20260903202156 | 68 | 136 | 0.0 | 0.0 | 0.00 | 0.08 | 0.08 | 53 | 1014.1 |
| 20260903201655 | 67 | 162 | 0.0 | 3.0 | 0.00 | 0.08 | 0.08 | 54 | 1014.0 |
| 20260903201150 | 68 | 199 | 0.0 | 5.0 | 0.00 | 0.08 | 0.08 | 54 | 1014.0 |
| 20260903200645 | 67 | 100 | 0.0 | 5.0 | 0.00 | 0.08 | 0.08 | 54 | 1014.0 |
| 20260903200140 | 68 | 170 | 0.0 | 7.0 | 0.00 | 0.08 | 0.08 | 54 | 1014.2 |
| 20260903195636 | 67 | 181 | 0.0 | 5.0 | 0.00 | 0.08 | 0.08 | 56 | 1014.2 |
| 20260903195132 | 67 | 200 | 0.0 | 0.0 | 0.00 | 0.08 | 0.08 | 54 | 1014.2 |
| 20260903194627 | 68 | 215 | 0.0 | 0.0 | 0.00 | 0.08 | 0.08 | 55 | 1014.2 |
| 20260903194126 | 66 | 223 | 1.0 | 10.0 | 0.00 | 0.08 | 0.08 | 57 | 1013.9 |
| 20260903193622 | 66 | 249 | 0.0 | 0.0 | 0.00 | 0.08 | 0.08 | 58 | 1014.1 |
| 20260903193118 | 65 | 230 | 0.0 | 0.0 | 0.00 | 0.08 | 0.08 | 60 | 1014.2 |
| 20260903192614 | 64 | 196 | 0.0 | 0.0 | 0.00 | 0.08 | 0.08 | 61 | 1014.1 |
| 20260903192114 | 64 | 215 | 0.0 | 3.0 | 0.00 | 0.08 | 0.08 | 62 | 1014.1 |
| 20260903191611 | 64 | 199 | 0.0 | 0.0 | 0.00 | 0.08 | 0.08 | 63 | 1014.2 |
| 20260903191105 | 64 | 208 | 0.0 | 0.0 | 0.00 | 0.08 | 0.08 | 62 | 1014.1 |
| 20260903190604 | 64 | 150 | 2.0 | 5.0 | 0.00 | 0.08 | 0.08 | 61 | 1014.1 |
| 20260903190059 | 64 | 314 | 0.0 | 0.0 | 0.00 | 0.08 | 0.08 | 62 | 1014.1 |
| 20260903185554 | 64 | 228 | 0.0 | 0.0 | 0.00 | 0.08 | 0.08 | 62 | 1014.2 |
| 20260903185050 | 64 | 134 | 0.0 | 0.0 | 0.00 | 0.08 | 0.08 | 62 | 1014.2 |
| 20260903184546 | 64 | 148 | 0.0 | 0.0 | 0.00 | 0.08 | 0.08 | 64 | 1014.0 |
| 20260903184041 | 63 | 158 | 0.0 | 0.0 | 0.00 | 0.08 | 0.08 | 62 | 1014.3 |
| 20260903183540 | 63 | 183 | 0.0 | 0.0 | 0.00 | 0.08 | 0.08 | 64 | 1014.2 |
| 20260903183035 | 63 | 161 | 0.0 | 0.0 | 0.00 | 0.08 | 0.08 | 65 | 1014.1 |
| 20260903182533 | 63 | 161 | 0.0 | 0.0 | 0.00 | 0.08 | 0.08 | 66 | 1014.2 |
| 20260903182031 | 63 | 186 | 0.0 | 0.0 | 0.00 | 0.08 | 0.08 | 67 | 1014.0 |
| 20260903181529 | 63 | 151 | 0.0 | 0.0 | 0.00 | 0.08 | 0.08 | 74 | 1014.2 |
| 20260903181023 | 63 | 241 | 0.0 | 0.0 | 0.00 | 0.08 | 0.08 | 73 | 1014.1 |
| 20260903180519 | 62 | 151 | 0.0 | 0.0 | 0.00 | 0.08 | 0.08 | 75 | 1014.3 |
| 20260903180018 | 62 | 202 | 0.0 | 0.0 | 0.00 | 0.08 | 0.08 | 76 | 1014.1 |
| 20260903175517 | 62 | 177 | 0.0 | 0.0 | 0.00 | 0.08 | 0.08 | 78 | 1014.2 |
| 20260903175017 | 61 | 148 | 0.0 | 0.0 | 0.00 | 0.08 | 0.08 | 79 | 1014.1 |
| 20260903174512 | 61 | 190 | 0.0 | 0.0 | 0.00 | 0.08 | 0.08 | 82 | 1014.2 |
| 20260903174012 | 60 | 149 | 0.0 | 0.0 | 0.00 | 0.08 | 0.08 | 83 | 1014.1 |
| 20260903173507 | 58 | 137 | 0.0 | 0.0 | 0.00 | 0.08 | 0.08 | 83 | 1014.1 |
| 20260903173003 | 58 | 146 | 0.0 | 0.0 | 0.00 | 0.08 | 0.08 | 84 | 1014.0 |
| 20260903172457 | 57 | 135 | 0.0 | 0.0 | 0.00 | 0.08 | 0.08 | 84 | 1014.1 |
| 20260903171953 | 57 | 152 | 0.0 | 0.0 | 0.00 | 0.08 | 0.08 | 86 | 1014.1 |
| 20260903171448 | 57 | 130 | 0.0 | 0.0 | 0.00 | 0.08 | 0.08 | 86 | 1014.1 |
| 20260903170942 | 57 | 136 | 0.0 | 0.0 | 0.00 | 0.08 | 0.08 | 86 | 1014.0 |
| 20260903170437 | 56 | 188 | 0.0 | 0.0 | 0.00 | 0.08 | 0.08 | 87 | 1013.9 |
| 20260903165936 | 56 | 131 | 0.0 | 0.0 | 0.00 | 0.08 | 0.08 | 87 | 1014.1 |
| 20260903165430 | 56 | 138 | 0.0 | 0.0 | 0.00 | 0.08 | 0.08 | 88 | 1014.2 |
| 20260903164925 | 56 | 125 | 0.0 | 0.0 | 0.00 | 0.08 | 0.08 | 89 | 1014.0 |
| 20260903164420 | 55 | 127 | 0.0 | 0.0 | 0.00 | 0.08 | 0.08 | 90 | 1014.0 |
| 20260903163919 | 55 | 141 | 0.0 | 0.0 | 0.00 | 0.08 | 0.08 | 92 | 1014.0 |
| 20260903163416 | 55 | 144 | 0.0 | 0.0 | 0.00 | 0.08 | 0.08 | 93 | 1014.1 |
| 20260903162912 | 55 | 146 | 0.0 | 0.0 | 0.00 | 0.08 | 0.08 | 93 | 1014.0 |
| 20260903162408 | 55 | 113 | 0.0 | 0.0 | 0.00 | 0.08 | 0.08 | 95 | 1014.0 |
| 20260903161903 | 54 | 186 | 0.0 | 0.0 | 0.00 | 0.08 | 0.08 | 95 | 1013.8 |
| 20260903161358 | 54 | 148 | 0.0 | 0.0 | 0.00 | 0.08 | 0.08 | 96 | 1014.1 |
| 20260903160854 | 54 | 159 | 0.0 | 0.0 | 0.00 | 0.08 | 0.08 | 96 | 1014.1 |
| 20260903160353 | 54 | 183 | 0.0 | 0.0 | 0.00 | 0.08 | 0.08 | 96 | 1014.1 |
| 20260903155852 | 54 | 126 | 0.0 | 0.0 | 0.00 | 0.08 | 0.08 | 96 | 1014.1 |
| 20260903155347 | 54 | 259 | 0.0 | 0.0 | 0.00 | 0.08 | 0.08 | 96 | 1014.2 |
| 20260903154843 | 54 | 176 | 0.0 | 0.0 | 0.00 | 0.08 | 0.08 | 96 | 1014.1 |
| 20260903154339 | 53 | 81 | 0.0 | 0.0 | 0.00 | 0.08 | 0.08 | 96 | 1013.9 |
| 20260903153833 | 53 | 130 | 0.0 | 0.0 | 0.00 | 0.08 | 0.08 | 96 | 1014.0 |
| 20260903153329 | 53 | 119 | 0.0 | 0.0 | 0.00 | 0.08 | 0.08 | 96 | 1014.0 |
| 20260903152826 | 53 | 195 | 0.0 | 0.0 | 0.00 | 0.08 | 0.08 | 96 | 1014.0 |
| 20260903152321 | 53 | 145 | 0.0 | 0.0 | 0.00 | 0.08 | 0.08 | 96 | 1014.0 |
| 20260903151816 | 53 | 139 | 0.0 | 0.0 | 0.00 | 0.08 | 0.08 | 96 | 1014.0 |
| 20260903151311 | 53 | 122 | 0.0 | 0.0 | 0.00 | 0.08 | 0.08 | 96 | 1014.0 |
| 20260903150806 | 53 | 150 | 0.0 | 0.0 | 0.00 | 0.08 | 0.08 | 97 | 1014.0 |
| 20260903150301 | 53 | 165 | 0.0 | 0.0 | 0.00 | 0.08 | 0.08 | 97 | 1013.8 |
| 20260903145755 | 53 | 190 | 0.0 | 0.0 | 0.00 | 0.08 | 0.08 | 97 | 1013.7 |
| 20260903145251 | 53 | 179 | 0.0 | 0.0 | 0.00 | 0.08 | 0.08 | 97 | 1013.8 |
| 20260903144749 | 53 | 190 | 0.0 | 0.0 | 0.00 | 0.08 | 0.08 | 97 | 1013.8 |
| 20260903144245 | 53 | 202 | 0.0 | 0.0 | 0.00 | 0.08 | 0.08 | 96 | 1013.7 |
| 20260903143741 | 52 | 204 | 0.0 | 0.0 | 0.00 | 0.08 | 0.08 | 96 | 1013.7 |
| 20260903143237 | 52 | 165 | 0.0 | 0.0 | 0.00 | 0.08 | 0.08 | 96 | 1013.6 |
| 20260903142733 | 52 | 151 | 0.0 | 0.0 | 0.00 | 0.08 | 0.08 | 96 | 1013.7 |
| 20260903142229 | 52 | 192 | 0.0 | 0.0 | 0.07 | 0.08 | 0.08 | 95 | 1013.6 |
| 20260903141724 | 52 | 187 | 0.0 | 0.0 | 0.07 | 0.08 | 0.08 | 95 | 1013.6 |
| 20260903141219 | 52 | 153 | 0.0 | 0.0 | 0.00 | 0.07 | 0.07 | 95 | 1013.6 |
| 20260903140715 | 52 | 141 | 0.0 | 0.0 | 0.00 | 0.07 | 0.07 | 95 | 1013.6 |
| 20260903140215 | 52 | 146 | 0.0 | 0.0 | 0.00 | 0.07 | 0.07 | 95 | 1013.7 |
| 20260903135711 | 52 | 183 | 0.0 | 0.0 | 0.07 | 0.07 | 0.07 | 94 | 1013.8 |
| 20260903135206 | 52 | 199 | 0.0 | 0.0 | 0.07 | 0.07 | 0.07 | 94 | 1013.5 |
| 20260903134704 | 52 | 207 | 0.0 | 0.0 | 0.00 | 0.06 | 0.06 | 93 | 1013.7 |
| 20260903134201 | 52 | 186 | 0.0 | 0.0 | 0.00 | 0.06 | 0.06 | 93 | 1013.4 |
| 20260903133658 | 52 | 193 | 0.0 | 0.0 | 0.07 | 0.06 | 0.06 | 92 | 1013.5 |
| 20260903133154 | 52 | 192 | 0.0 | 0.0 | 0.00 | 0.05 | 0.05 | 92 | 1013.6 |
| 20260903132649 | 52 | 184 | 0.0 | 0.0 | 0.00 | 0.05 | 0.05 | 91 | 1013.5 |
| 20260903132149 | 52 | 209 | 0.0 | 0.0 | 0.00 | 0.05 | 0.05 | 91 | 1013.2 |
| 20260903131643 | 52 | 217 | 0.0 | 0.0 | 0.07 | 0.05 | 0.05 | 91 | 1013.2 |
| 20260903131143 | 52 | 222 | 0.0 | 0.0 | 0.07 | 0.05 | 0.05 | 90 | 1013.3 |
| 20260903130638 | 52 | 186 | 0.0 | 0.0 | 0.00 | 0.04 | 0.04 | 90 | 1013.1 |
| 20260903130132 | 52 | 181 | 0.0 | 0.0 | 0.00 | 0.04 | 0.04 | 90 | 1012.9 |
| 20260903125631 | 52 | 183 | 0.0 | 0.0 | 0.07 | 0.04 | 0.04 | 89 | 1013.0 |
| 20260903125126 | 52 | 197 | 0.0 | 0.0 | 0.14 | 0.04 | 0.04 | 89 | 1013.2 |
| 20260903124626 | 52 | 210 | 0.0 | 0.0 | 0.07 | 0.02 | 0.02 | 89 | 1013.1 |
| 20260903124125 | 52 | 183 | 0.0 | 0.0 | 0.07 | 0.01 | 0.01 | 89 | 1013.1 |
| 20260903123620 | 52 | 140 | 0.0 | 0.0 | 0.07 | 0.01 | 0.01 | 88 | 1013.2 |
| 20260903123119 | 52 | 164 | 0.0 | 0.0 | 0.00 | 0.00 | 0.00 | 88 | 1013.2 |
| 20260903122619 | 52 | 179 | 0.0 | 0.0 | 0.00 | 0.00 | 0.00 | 88 | 1013.2 |
| 20260903122119 | 52 | 126 | 0.0 | 0.0 | 0.00 | 0.00 | 0.00 | 88 | 1013.2 |
| 20260903121618 | 52 | 165 | 0.0 | 0.0 | 0.00 | 0.00 | 0.00 | 88 | 1013.2 |
| 20260903121114 | 52 | 184 | 0.0 | 0.0 | 0.00 | 0.00 | 0.00 | 88 | 1013.2 |
| 20260903120613 | 52 | 152 | 0.0 | 0.0 | 0.00 | 0.00 | 0.00 | 88 | 1012.7 |
| 20260903120108 | 52 | 227 | 0.0 | 0.0 | 0.00 | 0.00 | 0.00 | 87 | 1012.7 |
| 20260903115605 | 52 | 190 | 0.0 | 0.0 | 0.00 | 0.00 | 0.00 | 87 | 1012.7 |
| 20260903115101 | 52 | 192 | 0.0 | 0.0 | 0.00 | 0.00 | 0.00 | 87 | 1012.5 |
| 20260903114556 | 52 | 194 | 0.0 | 0.0 | 0.00 | 0.00 | 0.00 | 87 | 1012.8 |
| 20260903114052 | 52 | 183 | 0.0 | 0.0 | 0.00 | 0.00 | 0.00 | 87 | 1012.5 |
| 20260903113547 | 52 | 195 | 0.0 | 0.0 | 0.00 | 0.00 | 0.00 | 87 | 1012.5 |
| 20260903113043 | 52 | 150 | 0.0 | 0.0 | 0.00 | 0.00 | 0.00 | 87 | 1012.6 |
| 20260903112539 | 52 | 165 | 0.0 | 0.0 | 0.00 | 0.00 | 0.00 | 87 | 1012.6 |
| 20260903112033 | 52 | 195 | 0.0 | 0.0 | 0.00 | 0.00 | 0.00 | 87 | 1012.5 |
| 20260903111532 | 52 | 148 | 0.0 | 0.0 | 0.00 | 0.00 | 0.00 | 87 | 1012.6 |
| 20260903111029 | 52 | 179 | 0.0 | 0.0 | 0.00 | 0.00 | 0.00 | 87 | 1012.7 |
| 20260903110525 | 52 | 182 | 0.0 | 0.0 | 0.00 | 0.00 | 0.00 | 86 | 1012.5 |
| 20260903110024 | 52 | 136 | 0.0 | 0.0 | 0.00 | 0.00 | 0.00 | 87 | 1012.5 |
| 20260903105519 | 52 | 147 | 0.0 | 0.0 | 0.00 | 0.00 | 0.00 | 87 | 1012.6 |
| 20260903105014 | 52 | 150 | 0.0 | 0.0 | 0.00 | 0.00 | 0.00 | 86 | 1012.6 |
| 20260903104508 | 52 | 137 | 0.0 | 0.0 | 0.00 | 0.00 | 0.00 | 86 | 1012.5 |
| 20260903104005 | 52 | 144 | 0.0 | 0.0 | 0.00 | 0.00 | 0.00 | 87 | 1012.4 |
| 20260903103500 | 52 | 134 | 0.0 | 0.0 | 0.00 | 0.00 | 0.00 | 86 | 1012.7 |
| 20260903102955 | 52 | 122 | 0.0 | 0.0 | 0.00 | 0.00 | 0.00 | 87 | 1012.5 |
| 20260903102451 | 52 | 148 | 0.0 | 0.0 | 0.00 | 0.00 | 0.00 | 87 | 1012.7 |
| 20260903101949 | 52 | 190 | 0.0 | 0.0 | 0.00 | 0.00 | 0.00 | 87 | 1012.4 |
| 20260903101444 | 52 | 150 | 0.0 | 0.0 | 0.00 | 0.00 | 0.00 | 87 | 1012.6 |
| 20260903100940 | 52 | 126 | 0.0 | 0.0 | 0.00 | 0.00 | 0.00 | 87 | 1012.7 |
| 20260903100435 | 52 | 135 | 0.0 | 0.0 | 0.00 | 0.00 | 0.00 | 87 | 1012.6 |
| 20260903095932 | 52 | 188 | 0.0 | 0.0 | 0.00 | 0.00 | 0.00 | 87 | 1012.5 |
| 20260903095427 | 52 | 178 | 0.0 | 0.0 | 0.00 | 0.00 | 0.00 | 87 | 1012.5 |
| 20260903094922 | 52 | 229 | 0.0 | 0.0 | 0.00 | 0.00 | 0.00 | 87 | 1012.4 |
| 20260903094421 | 52 | 125 | 0.0 | 0.0 | 0.00 | 0.00 | 0.00 | 87 | 1012.4 |
| 20260903093917 | 52 | 152 | 0.0 | 0.0 | 0.00 | 0.00 | 0.00 | 87 | 1012.5 |
| 20260903093412 | 52 | 140 | 0.0 | 0.0 | 0.00 | 0.00 | 0.00 | 87 | 1012.5 |
| 20260903092908 | 53 | 137 | 0.0 | 0.0 | 0.00 | 0.00 | 0.00 | 87 | 1012.5 |
| 20260903092402 | 53 | 146 | 0.0 | 0.0 | 0.00 | 0.00 | 0.00 | 86 | 1012.6 |
| 20260903091900 | 52 | 182 | 0.0 | 0.0 | 0.00 | 0.00 | 0.00 | 86 | 1012.6 |
| 20260903091400 | 52 | 168 | 0.0 | 0.0 | 0.00 | 0.00 | 0.00 | 87 | 1012.6 |
| 20260903090854 | 52 | 162 | 0.0 | 0.0 | 0.00 | 0.00 | 0.00 | 87 | 1012.5 |
| 20260903090350 | 52 | 186 | 0.0 | 0.0 | 0.00 | 0.00 | 0.00 | 88 | 1012.6 |
| 20260903085848 | 52 | 155 | 0.0 | 0.0 | 0.00 | 0.00 | 0.00 | 88 | 1012.5 |
| 20260903085342 | 52 | 164 | 0.0 | 0.0 | 0.00 | 0.00 | 0.00 | 88 | 1012.7 |
| 20260903084841 | 52 | 167 | 0.0 | 0.0 | 0.00 | 0.00 | 0.00 | 88 | 1012.4 |
| 20260903084340 | 52 | 143 | 0.0 | 0.0 | 0.00 | 0.00 | 0.00 | 88 | 1012.5 |
| 20260903083836 | 52 | 130 | 0.0 | 0.0 | 0.00 | 0.00 | 0.00 | 88 | 1012.4 |
| 20260903083331 | 52 | 138 | 0.0 | 0.0 | 0.00 | 0.00 | 0.00 | 88 | 1012.7 |
| 20260903082830 | 52 | 128 | 0.0 | 0.0 | 0.00 | 0.00 | 0.00 | 88 | 1012.4 |
| 20260903082325 | 52 | 134 | 0.0 | 0.0 | 0.00 | 0.00 | 0.00 | 88 | 1012.4 |
| 20260903081821 | 53 | 147 | 0.0 | 0.0 | 0.00 | 0.00 | 0.00 | 88 | 1012.3 |
| 20260903081316 | 53 | 145 | 0.0 | 0.0 | 0.00 | 0.00 | 0.00 | 88 | 1012.3 |
| 20260903080812 | 53 | 150 | 0.0 | 0.0 | 0.00 | 0.00 | 0.00 | 88 | 1012.4 |
| 20260903080310 | 53 | 137 | 0.0 | 0.0 | 0.00 | 0.00 | 0.00 | 88 | 1012.3 |
| 20260903075809 | 53 | 142 | 0.0 | 0.0 | 0.00 | 0.00 | 0.00 | 89 | 1012.3 |
| 20260903075306 | 53 | 137 | 0.0 | 0.0 | 0.00 | 0.00 | 0.00 | 89 | 1012.4 |
| 20260903074803 | 53 | 147 | 0.0 | 0.0 | 0.00 | 0.00 | 0.00 | 89 | 1012.3 |
| 20260903074252 | 53 | 117 | 0.0 | 0.0 | 0.00 | 0.00 | 0.00 | 89 | 1012.5 |
| 20260903073748 | 53 | 139 | 0.0 | 0.0 | 0.00 | 0.00 | 0.00 | 91 | 1012.3 |
| 20260903073243 | 53 | 144 | 0.0 | 0.0 | 0.00 | 0.00 | 0.00 | 92 | 1012.5 |
| 20260903072739 | 52 | 148 | 0.0 | 0.0 | 0.00 | 0.00 | 0.00 | 92 | 1012.2 |
| 20260903072235 | 52 | 156 | 0.0 | 0.0 | 0.00 | 0.00 | 0.00 | 92 | 1012.3 |
| 20260903071732 | 52 | 159 | 0.0 | 0.0 | 0.00 | 0.00 | 0.00 | 92 | 1012.3 |
| 20260903071227 | 52 | 168 | 0.0 | 0.0 | 0.00 | 0.00 | 0.00 | 92 | 1012.2 |
| 20260903070727 | 52 | 148 | 0.0 | 0.0 | 0.00 | 0.00 | 0.00 | 92 | 1012.1 |
| 20260903070222 | 52 | 190 | 0.0 | 0.0 | 0.00 | 0.00 | 0.00 | 92 | 1012.2 |
| 20260903065717 | 53 | 170 | 0.0 | 0.0 | 0.00 | 0.22 | 0.22 | 92 | 1012.2 |
| 20260903065211 | 53 | 153 | 0.0 | 0.0 | 0.00 | 0.22 | 0.22 | 92 | 1012.3 |
| 20260903064710 | 53 | 145 | 0.0 | 0.0 | 0.00 | 0.22 | 0.22 | 92 | 1012.3 |
| 20260903064206 | 53 | 142 | 0.0 | 0.0 | 0.00 | 0.22 | 0.22 | 92 | 1012.3 |
| 20260903063701 | 53 | 109 | 0.0 | 0.0 | 0.00 | 0.22 | 0.22 | 92 | 1012.1 |
| 20260903063156 | 53 | 162 | 0.0 | 0.0 | 0.00 | 0.22 | 0.22 | 92 | 1012.2 |
| 20260903062652 | 53 | 204 | 0.0 | 0.0 | 0.00 | 0.22 | 0.22 | 92 | 1012.0 |
| 20260903062147 | 53 | 142 | 0.0 | 0.0 | 0.00 | 0.22 | 0.22 | 92 | 1012.2 |
| 20260903061642 | 53 | 137 | 0.0 | 0.0 | 0.00 | 0.22 | 0.22 | 92 | 1012.3 |
| 20260903061141 | 53 | 148 | 0.0 | 0.0 | 0.00 | 0.22 | 0.22 | 92 | 1012.1 |
| 20260903060637 | 53 | 140 | 0.0 | 0.0 | 0.00 | 0.22 | 0.22 | 92 | 1012.4 |
| 20260903060132 | 53 | 151 | 0.0 | 0.0 | 0.00 | 0.22 | 0.22 | 92 | 1012.2 |
| 20260903055629 | 53 | 164 | 0.0 | 0.0 | 0.00 | 0.22 | 0.22 | 93 | 1012.3 |
| 20260903055127 | 53 | 172 | 0.0 | 0.0 | 0.00 | 0.22 | 0.22 | 93 | 1012.3 |
| 20260903054622 | 53 | 183 | 0.0 | 0.0 | 0.00 | 0.22 | 0.22 | 92 | 1012.2 |
| 20260903054118 | 53 | 189 | 0.0 | 0.0 | 0.00 | 0.22 | 0.22 | 92 | 1012.2 |
| 20260903053614 | 54 | 141 | 0.0 | 0.0 | 0.00 | 0.22 | 0.22 | 92 | 1012.5 |
| 20260903053109 | 53 | 184 | 0.0 | 0.0 | 0.00 | 0.22 | 0.22 | 92 | 1012.4 |
| 20260903052605 | 54 | 168 | 0.0 | 0.0 | 0.00 | 0.22 | 0.22 | 92 | 1012.5 |
| 20260903052100 | 54 | 145 | 0.0 | 0.0 | 0.00 | 0.22 | 0.22 | 92 | 1012.3 |
| 20260903051555 | 54 | 143 | 0.0 | 0.0 | 0.00 | 0.22 | 0.22 | 93 | 1012.4 |
| 20260903051050 | 54 | 144 | 2.0 | 5.0 | 0.00 | 0.22 | 0.22 | 93 | 1012.3 |
| 20260903050550 | 54 | 176 | 0.0 | 0.0 | 0.00 | 0.22 | 0.22 | 93 | 1012.1 |
| 20260903050046 | 54 | 140 | 0.0 | 0.0 | 0.00 | 0.22 | 0.22 | 92 | 1012.2 |
| 20260903045544 | 54 | 192 | 0.0 | 0.0 | 0.00 | 0.22 | 0.22 | 92 | 1012.3 |
| 20260903045042 | 54 | 142 | 0.0 | 0.0 | 0.00 | 0.22 | 0.22 | 91 | 1012.2 |
| 20260903044537 | 54 | 202 | 0.0 | 0.0 | 0.00 | 0.22 | 0.22 | 90 | 1012.4 |
| 20260903044032 | 54 | 203 | 0.0 | 0.0 | 0.00 | 0.22 | 0.22 | 89 | 1012.2 |
| 20260903043528 | 54 | 201 | 0.0 | 0.0 | 0.00 | 0.22 | 0.22 | 89 | 1012.1 |
| 20260903043027 | 55 | 185 | 0.0 | 0.0 | 0.00 | 0.22 | 0.22 | 89 | 1012.1 |
| 20260903042522 | 55 | 191 | 0.0 | 0.0 | 0.00 | 0.22 | 0.22 | 88 | 1012.1 |
| 20260903042018 | 55 | 175 | 0.0 | 0.0 | 0.00 | 0.22 | 0.22 | 88 | 1012.2 |
| 20260903041515 | 55 | 174 | 0.0 | 0.0 | 0.00 | 0.22 | 0.22 | 88 | 1012.0 |
| 20260903041009 | 56 | 171 | 0.0 | 0.0 | 0.00 | 0.22 | 0.22 | 87 | 1012.0 |
| 20260903040508 | 56 | 156 | 0.0 | 0.0 | 0.00 | 0.22 | 0.22 | 87 | 1012.0 |
| 20260903040008 | 56 | 146 | 0.0 | 0.0 | 0.00 | 0.22 | 0.22 | 86 | 1011.8 |
| 20260903035500 | 56 | 191 | 0.0 | 0.0 | 0.00 | 0.22 | 0.22 | 85 | 1011.8 |
| 20260903034955 | 56 | 191 | 0.0 | 0.0 | 0.00 | 0.22 | 0.22 | 84 | 1011.6 |
| 20260903034450 | 57 | 185 | 0.0 | 0.0 | 0.00 | 0.22 | 0.22 | 83 | 1011.5 |
| 20260903033950 | 57 | 149 | 2.0 | 5.0 | 0.00 | 0.22 | 0.22 | 83 | 1011.4 |
| 20260903033445 | 57 | 152 | 0.0 | 0.0 | 0.00 | 0.22 | 0.22 | 84 | 1011.4 |
| 20260903032940 | 57 | 154 | 1.0 | 5.0 | 0.00 | 0.22 | 0.22 | 85 | 1011.4 |
| 20260903032436 | 57 | 146 | 1.0 | 5.0 | 0.00 | 0.22 | 0.22 | 87 | 1011.6 |
| 20260903031930 | 57 | 152 | 0.0 | 0.0 | 0.00 | 0.22 | 0.22 | 88 | 1011.3 |
| 20260903031425 | 57 | 217 | 0.0 | 3.0 | 0.00 | 0.22 | 0.22 | 88 | 1011.4 |
| 20260903030920 | 57 | 169 | 0.0 | 0.0 | 0.00 | 0.22 | 0.22 | 89 | 1011.3 |
| 20260903030416 | 57 | 156 | 0.0 | 0.0 | 0.00 | 0.22 | 0.22 | 89 | 1011.4 |
| 20260903025912 | 57 | 170 | 0.0 | 0.0 | 0.00 | 0.22 | 0.22 | 88 | 1011.3 |
| 20260903025408 | 58 | 195 | 0.0 | 0.0 | 0.00 | 0.22 | 0.22 | 88 | 1011.3 |
| 20260903024902 | 58 | 160 | 0.0 | 0.0 | 0.00 | 0.22 | 0.22 | 88 | 1011.3 |
| 20260903024356 | 58 | 129 | 0.0 | 5.0 | 0.00 | 0.22 | 0.22 | 88 | 1011.0 |
| 20260903023851 | 58 | 144 | 0.0 | 3.0 | 0.00 | 0.22 | 0.22 | 89 | 1011.2 |
| 20260903023347 | 58 | 136 | 0.0 | 0.0 | 0.00 | 0.22 | 0.22 | 89 | 1011.0 |
| 20260903022842 | 58 | 151 | 0.0 | 0.0 | 0.00 | 0.22 | 0.22 | 89 | 1010.9 |
| 20260903022341 | 58 | 161 | 0.0 | 0.0 | 0.00 | 0.22 | 0.22 | 89 | 1010.9 |
| 20260903021840 | 58 | 165 | 0.0 | 0.0 | 0.00 | 0.22 | 0.22 | 89 | 1010.8 |
| 20260903021336 | 59 | 134 | 0.0 | 0.0 | 0.00 | 0.22 | 0.22 | 89 | 1010.7 |
| 20260903020836 | 59 | 151 | 0.0 | 0.0 | 0.00 | 0.22 | 0.22 | 89 | 1010.7 |
| 20260903020331 | 59 | 196 | 0.0 | 0.0 | 0.00 | 0.22 | 0.22 | 89 | 1010.5 |
| 20260903015826 | 59 | 185 | 0.0 | 0.0 | 0.00 | 0.22 | 0.22 | 88 | 1010.6 |
| 20260903015321 | 59 | 183 | 0.0 | 0.0 | 0.00 | 0.22 | 0.22 | 88 | 1010.7 |
| 20260903014816 | 59 | 185 | 0.0 | 0.0 | 0.00 | 0.22 | 0.22 | 89 | 1010.6 |
| 20260903014316 | 59 | 180 | 0.0 | 0.0 | 0.00 | 0.22 | 0.22 | 88 | 1010.5 |
| 20260903013811 | 59 | 208 | 0.0 | 0.0 | 0.00 | 0.22 | 0.22 | 88 | 1010.5 |
| 20260903013310 | 59 | 143 | 1.0 | 3.0 | 0.00 | 0.22 | 0.22 | 88 | 1010.6 |
| 20260903012809 | 59 | 183 | 0.0 | 3.0 | 0.00 | 0.22 | 0.22 | 88 | 1010.2 |
| 20260903012306 | 59 | 170 | 0.0 | 0.0 | 0.00 | 0.22 | 0.22 | 87 | 1010.1 |
| 20260903011757 | 59 | 146 | 0.0 | 5.0 | 0.00 | 0.22 | 0.22 | 87 | 1010.0 |
| 20260903011256 | 59 | 198 | 1.0 | 5.0 | 0.00 | 0.22 | 0.22 | 88 | 1010.2 |
| 20260903010752 | 59 | 199 | 0.0 | 0.0 | 0.00 | 0.22 | 0.22 | 88 | 1010.2 |
| 20260903010248 | 59 | 99 | 4.0 | 10.0 | 0.00 | 0.22 | 0.22 | 88 | 1009.9 |
| 20260903005746 | 58 | 149 | 0.0 | 0.0 | 0.00 | 0.22 | 0.22 | 91 | 1010.0 |
| 20260903005241 | 58 | 154 | 0.0 | 10.0 | 0.00 | 0.22 | 0.22 | 91 | 1010.1 |
| 20260903004737 | 58 | 129 | 0.0 | 5.0 | 0.07 | 0.22 | 0.22 | 93 | 1010.0 |
| 20260903004232 | 57 | 155 | 0.0 | 10.0 | 0.14 | 0.22 | 0.22 | 94 | 1010.1 |
| 20260903003728 | 58 | 162 | 0.0 | 10.0 | 0.14 | 0.21 | 0.21 | 94 | 1009.9 |
| 20260903003223 | 59 | 149 | 0.0 | 7.0 | 0.14 | 0.20 | 0.20 | 95 | 1010.1 |
| 20260903002717 | 59 | 267 | 0.0 | 3.0 | 0.14 | 0.19 | 0.19 | 95 | 1010.0 |
| 20260903002212 | 60 | 314 | 6.0 | 10.0 | 0.00 | 0.17 | 0.17 | 95 | 1009.7 |
| 20260903001707 | 60 | 257 | 0.0 | 3.0 | 0.00 | 0.17 | 0.17 | 94 | 1009.4 |
| 20260903001201 | 60 | 207 | 0.0 | 0.0 | 0.00 | 0.17 | 0.17 | 94 | 1009.1 |
| 20260903000656 | 60 | 227 | 0.0 | 0.0 | 0.00 | 0.17 | 0.17 | 94 | 1009.0 |
| 20260903000155 | 60 | 199 | 0.0 | 0.0 | 0.00 | 0.17 | 0.17 | 93 | 1009.1 |
| 20260902235649 | 60 | 188 | 0.0 | 0.0 | 0.00 | 0.17 | 0.17 | 93 | 1009.2 |
| 20260902235144 | 59 | 179 | 0.0 | 0.0 | 0.00 | 0.17 | 0.17 | 93 | 1008.7 |
| 20260902234644 | 60 | 156 | 0.0 | 0.0 | 0.00 | 0.17 | 0.17 | 93 | 1009.2 |
| 20260902234143 | 59 | 192 | 0.0 | 0.0 | 0.00 | 0.17 | 0.17 | 93 | 1009.1 |
| 20260902233638 | 60 | 178 | 0.0 | 0.0 | 0.00 | 0.17 | 0.17 | 93 | 1009.2 |
| 20260902233137 | 59 | 198 | 0.0 | 0.0 | 0.00 | 0.17 | 0.17 | 92 | 1009.3 |
| 20260902232637 | 59 | 194 | 0.0 | 0.0 | 0.00 | 0.17 | 0.17 | 92 | 1009.3 |
| 20260902232136 | 59 | 209 | 0.0 | 0.0 | 0.00 | 0.17 | 0.17 | 92 | 1009.0 |
| 20260902231636 | 60 | 219 | 0.0 | 0.0 | 0.00 | 0.17 | 0.17 | 91 | 1009.0 |
| 20260902231130 | 59 | 196 | 0.0 | 0.0 | 0.00 | 0.17 | 0.17 | 91 | 1009.0 |
| 20260902230626 | 59 | 164 | 0.0 | 0.0 | 0.00 | 0.17 | 0.17 | 90 | 1009.1 |
| 20260902230125 | 59 | 185 | 0.0 | 0.0 | 0.07 | 0.17 | 0.17 | 90 | 1009.1 |
| 20260902225620 | 60 | 142 | 0.0 | 0.0 | 0.07 | 0.17 | 0.17 | 89 | 1009.4 |
| 20260902225119 | 60 | 168 | 0.0 | 0.0 | 0.07 | 0.15 | 0.15 | 89 | 1009.4 |
| 20260902224618 | 60 | 33 | 0.0 | 0.0 | 0.14 | 0.15 | 0.15 | 88 | 1009.3 |
| 20260902224114 | 60 | 188 | 0.0 | 0.0 | 0.14 | 0.14 | 0.14 | 88 | 1009.5 |
| 20260902223611 | 60 | 168 | 0.0 | 0.0 | 0.07 | 0.13 | 0.13 | 88 | 1009.4 |
| 20260902223109 | 60 | 166 | 0.0 | 0.0 | 0.00 | 0.12 | 0.12 | 87 | 1009.5 |
| 20260902222608 | 60 | 199 | 0.0 | 0.0 | 0.07 | 0.12 | 0.12 | 88 | 1009.2 |
| 20260902222107 | 60 | 159 | 0.0 | 0.0 | 0.14 | 0.12 | 0.12 | 87 | 1009.2 |
| 20260902221601 | 60 | 201 | 0.0 | 0.0 | 0.07 | 0.11 | 0.11 | 86 | 1009.4 |
| 20260902221056 | 60 | 205 | 0.0 | 0.0 | 0.07 | 0.09 | 0.09 | 86 | 1009.0 |
| 20260902220552 | 60 | 135 | 0.0 | 0.0 | 0.07 | 0.09 | 0.09 | 85 | 1009.2 |
| 20260902220046 | 60 | 183 | 0.0 | 0.0 | 0.07 | 0.08 | 0.08 | 85 | 1009.5 |
| 20260902215543 | 60 | 198 | 0.0 | 0.0 | 0.14 | 0.08 | 0.08 | 84 | 1009.3 |
| 20260902215038 | 60 | 195 | 0.0 | 0.0 | 0.07 | 0.07 | 0.07 | 83 | 1009.5 |
| 20260902214532 | 60 | 157 | 0.0 | 0.0 | 0.00 | 0.06 | 0.06 | 82 | 1009.4 |
| 20260902214031 | 60 | 193 | 0.0 | 0.0 | 0.07 | 0.06 | 0.06 | 81 | 1009.4 |
| 20260902213527 | 61 | 116 | 0.0 | 0.0 | 0.07 | 0.06 | 0.06 | 81 | 1009.4 |